FW5301 Weather Reports


time (UTC)temp
F
wind
direction
speed
knots
gust
knots
rain 1hr
in
rain 24hr
in
rain mn
in
humidity
%
barometer
mb
20260906010041 54 265 0.0 2.6 0.00 0.00 0.00 63 1019.6
20260906004526 53 325 0.0 0.0 0.00 0.00 0.00 66 1019.3
20260906003013 53 325 0.0 0.0 0.00 0.00 0.00 65 1019.1
20260906001510 54 325 0.0 0.0 0.00 0.00 0.00 63 1019.0
20260906000057 53 325 0.0 0.0 0.00 0.00 0.00 65 1019.1
20260905234542 52 325 0.0 0.0 0.00 0.00 0.00 67 1018.8
20260905233016 53 325 0.0 0.9 0.00 0.00 0.00 67 1018.8
20260905231506 53 325 0.0 0.9 0.00 0.00 0.00 68 1018.8
20260905230055 53 325 0.0 0.9 0.00 0.00 0.00 68 1018.7
20260905224550 54 325 0.0 1.7 0.00 0.00 0.00 66 1018.7
20260905223033 53 344 0.0 0.0 0.00 0.00 0.00 68 1018.7
20260905221522 54 344 0.0 0.9 0.00 0.00 0.00 68 1018.7
20260905220012 54 344 0.0 0.0 0.00 0.00 0.00 68 1018.7
20260905214601 55 344 0.0 0.0 0.00 0.00 0.00 70 1018.6
20260905213039 56 344 0.0 5.2 0.00 0.00 0.00 69 1018.6
20260905211528 56 354 0.0 2.6 0.00 0.00 0.00 69 1018.7
20260905210017 55 269 0.0 1.7 0.00 0.00 0.00 69 1018.3
20260905204544 56 269 0.0 2.6 0.00 0.00 0.00 69 1018.2
20260905203019 56 265 0.0 0.0 0.00 0.00 0.00 67 1018.2
20260905201511 57 265 0.0 0.0 0.00 0.00 0.00 67 1018.0
20260905200112 57 265 0.0 0.0 0.00 0.00 0.00 67 1017.9
20260905194602 59 265 0.0 0.0 0.00 0.00 0.00 65 1017.9
20260905193037 59 265 0.0 0.9 0.00 0.00 0.00 64 1018.1
20260905191527 59 265 0.0 2.6 0.00 0.00 0.00 65 1018.0
20260905190002 59 290 0.0 0.0 0.00 0.00 0.00 64 1017.7
20260905184612 59 290 0.0 0.0 0.00 0.00 0.00 63 1017.5
20260905183048 61 290 0.0 0.0 0.00 0.00 0.00 61 1017.3
20260905181540 62 290 0.0 4.3 0.00 0.00 0.00 60 1017.0
20260905180027 63 273 1.7 7.0 0.00 0.00 0.00 59 1016.9
20260905174512 63 281 2.6 8.7 0.00 0.00 0.00 59 1016.6
20260905173113 63 271 2.6 6.1 0.00 0.00 0.00 59 1016.3
20260905171549 63 254 4.3 7.0 0.00 0.00 0.00 58 1016.4
20260905170039 64 278 1.7 6.1 0.00 0.00 0.00 57 1016.2
20260905164527 64 272 2.6 4.3 0.00 0.00 0.00 57 1016.0
20260905163016 64 251 3.5 6.1 0.00 0.00 0.00 56 1016.1
20260905161506 65 264 1.7 4.3 0.00 0.00 0.00 54 1016.2
20260905160055 66 260 2.6 6.1 0.00 0.00 0.00 52 1016.2
20260905154549 67 247 1.7 5.2 0.00 0.00 0.00 48 1016.2
20260905153020 69 323 0.0 0.0 0.00 0.00 0.00 42 1016.0
20260905151510 70 323 0.0 1.7 0.00 0.00 0.00 41 1016.0
20260905144553 70 286 2.6 7.8 0.00 0.00 0.00 41 1016.1
20260905143039 71 64 0.0 1.7 0.00 0.00 0.00 39 1016.0
20260905141530 70 317 0.0 0.9 0.00 0.00 0.00 40 1016.2
20260905140017 70 236 0.0 4.3 0.00 0.00 0.00 40 1016.2
20260905134505 70 60 0.0 3.5 0.00 0.00 0.00 41 1016.2
20260905133057 70 329 0.9 6.1 0.00 0.00 0.00 39 1016.2
20260905131541 72 7 2.6 6.1 0.00 0.00 0.00 38 1016.2
20260905130025 70 323 0.9 7.0 0.00 0.00 0.00 41 1015.9
20260905124514 69 45 1.7 8.7 0.00 0.00 0.00 41 1016.0
20260905123003 70 303 0.0 7.8 0.00 0.00 0.00 40 1016.1
20260905121600 69 304 0.0 5.2 0.00 0.00 0.00 43 1016.4
20260905120047 68 60 0.9 4.3 0.00 0.00 0.00 44 1016.3
20260905114526 67 354 0.9 3.5 0.00 0.00 0.00 45 1016.2
20260905113008 68 1 0.0 4.3 0.00 0.00 0.00 43 1016.5
20260905111645 67 336 1.7 7.0 0.00 0.00 0.00 44 1016.6
20260905110050 66 316 0.0 2.6 0.00 0.00 0.00 44 1016.4
20260905104540 64 302 0.9 2.6 0.00 0.00 0.00 51 1016.5
20260905103030 63 321 0.0 1.7 0.00 0.00 0.00 53 1016.1
20260905101521 62 319 0.0 2.6 0.00 0.00 0.00 53 1016.3
20260905100010 63 322 0.9 4.3 0.00 0.00 0.00 52 1016.7
20260905094554 64 322 1.7 11.3 0.00 0.00 0.00 50 1016.7
20260905093045 65 343 4.3 10.4 0.00 0.00 0.00 50 1016.1
20260905091537 65 307 0.9 3.5 0.00 0.00 0.00 52 1015.8
20260905090024 65 34 0.9 6.1 0.00 0.00 0.00 50 1015.9
20260905084511 66 333 2.6 8.7 0.00 0.00 0.00 46 1015.8
20260905083048 67 347 1.7 7.8 0.00 0.00 0.00 45 1015.3
20260905081554 67 250 0.9 7.0 0.00 0.00 0.00 46 1015.1
20260905080053 67 245 1.7 10.4 0.00 0.00 0.00 46 1015.4
20260905074524 67 304 1.7 8.7 0.00 0.00 0.00 46 1015.4
20260905073014 67 350 1.7 10.4 0.00 0.00 0.00 47 1015.2
20260905071504 67 319 0.9 7.8 0.00 0.00 0.00 49 1014.9
20260905070056 67 317 1.7 6.1 0.00 0.00 0.00 47 1015.2
20260905064545 67 325 0.0 5.2 0.00 0.00 0.00 47 1014.6
20260905063026 68 307 0.9 4.3 0.00 0.00 0.00 46 1014.7
20260905061516 69 298 0.0 4.3 0.00 0.00 0.00 45 1014.5
20260905060005 70 320 0.0 2.6 0.00 0.00 0.00 49 1014.2
20260905054557 70 321 0.0 2.6 0.00 0.00 0.00 51 1014.1
20260905053033 68 322 0.0 2.6 0.00 0.00 0.00 52 1013.7
20260905051534 66 326 0.0 1.7 0.00 0.00 0.00 55 1013.7
20260905050016 64 325 0.0 3.5 0.00 0.00 0.00 57 1013.6
20260905044504 63 330 0.0 1.7 0.00 0.00 0.00 58 1013.6
20260905043059 62 271 0.0 2.6 0.00 0.00 0.00 60 1013.8
20260905041546 62 271 0.0 6.1 0.00 0.00 0.00 60 1014.0
20260905040041 63 346 0.0 3.5 0.00 0.00 0.00 58 1014.0
20260905034528 64 277 0.9 4.3 0.00 0.00 0.00 56 1013.4
20260905033035 65 304 0.0 3.5 0.00 0.00 0.00 54 1013.0
20260905031505 65 304 0.0 6.1 0.00 0.00 0.00 54 1012.6
20260905030101 66 355 0.9 9.6 0.00 0.00 0.00 54 1012.1
20260905024546 64 82 2.6 7.8 0.00 0.00 0.00 56 1012.1
20260905023043 64 320 0.0 2.6 0.00 0.00 0.00 56 1012.2
20260905021524 64 338 0.0 2.6 0.00 0.00 0.00 55 1012.3
20260905020016 64 356 0.0 2.6 0.00 0.00 0.00 56 1012.4
20260905014502 64 25 0.0 2.6 0.00 0.00 0.00 56 1012.1
20260905013059 66 14 0.0 7.8 0.00 0.00 0.00 53 1012.3
20260905011547 65 271 2.6 7.8 0.00 0.00 0.00 55 1012.2